Home > Weather > Aurora > Past weeks

Flag for U.S.A. Weather for the Past 2 Weeks in Aurora, Colorado, U.S.A.

Now
51 °F

Passing clouds.


Feels Like: 49 °F
Forecast: 34 / 53 °F
Wind: 6 mph from Southwest

Location: Buckley Air Force Base

Current Time: Feb 13, 2016 at 7:50:16 PM

Latest Report: Feb 13, 2016 at 6:58 PM


Visibility: 10 mi

Pressure: 29.92 "Hg (24.54 "Hg at 1647m altitude)

Humidity: 21%

Dew point: 13 °F

Location of AuroraLocation

Historic Weather in Aurora — Graph

°F

Aurora Temperature Yesterday

Maximum temperature yesterday: 55 °F (at 1:58 PM)
Minimum temperature yesterday: 31 °F (at 6:58 AM)
Average temperature yesterday: 41 °F

High & Low Weather Summary for the Past Weeks

 TemperatureHumidityPressure
High65 °F (Feb 10, 2:58 PM)100% (Jan 30, 7:01 PM)30.50 "Hg (Jan 30, 7:01 PM)
Low6 °F (Feb 3, 10:58 PM)14% (Feb 10, 2:58 PM)29.33 "Hg (Jan 30, 1:58 PM)
Average33 °F60%30.09 "Hg
* Reported Jan 29 5:58 PM — Feb 13 5:58 PM, Aurora, Weather by CustomWeather, © 2016

Note: Actual official high and low records may vary slightly from our data, if they occured in-between our weather recording intervals... More about our weather records

Advertising

Aurora Weather History for the Previous 24 Hours

 ConditionsComfort  
Time TempWeatherWind HumidityBarometerVisibility
5:58 PM
Sat, Feb 13
55 °FPassing clouds.18 mph20%29.93 "Hg10 mi
4:58 PM59 °FPartly sunny.18 mph16%29.93 "Hg10 mi
3:58 PM62 °FPartly sunny.26 mph15%29.88 "Hg10 mi
2:58 PM64 °FScattered clouds.17 mph16%29.86 "Hg10 mi
1:58 PM64 °FPartly sunny.12 mph14%29.85 "Hg10 mi
12:58 PM62 °FPartly sunny.9 mph20%29.88 "Hg10 mi
11:58 AM65 °FPartly sunny.7 mph14%29.89 "Hg10 mi
10:58 AM61 °FPartly sunny.5 mph21%29.93 "Hg10 mi
9:58 AM44 °FBroken clouds.3 mph90%30.01 "Hg10 mi
8:58 AM34 °FBroken clouds.5 mph100%30.07 "Hg10 mi
7:58 AM26 °FBroken clouds.No wind100%30.13 "Hg7 mi
6:58 AM25 °FBroken clouds.5 mph98%30.11 "Hg7 mi
5:58 AM25 °FIce fog.No wind99%30.11 "Hg1 mi
4:58 AM27 °FIce fog.No wind100%30.08 "Hg1 mi
3:58 AM27 °FIce fog.No wind100%30.09 "Hg0 mi
2:58 AM29 °FIce fog.No wind100%30.09 "Hg0 mi
1:58 AM32 °FPassing clouds.2 mph99%30.10 "Hg10 mi
12:58 AM32 °FPassing clouds.1 mph100%30.12 "Hg10 mi
11:58 PM
Fri, Feb 12
34 °FPassing clouds.1 mph97%30.13 "Hg10 mi
10:58 PM37 °FPassing clouds.2 mph86%30.16 "Hg10 mi
9:58 PM37 °FPassing clouds.6 mph86%30.19 "Hg10 mi
8:58 PM37 °FPassing clouds.5 mph85%30.22 "Hg10 mi
7:58 PM35 °FPassing clouds.6 mph88%30.26 "Hg10 mi
Weather by CustomWeather, © 2016

See weather overviewHow to use our weather pages